Change the Weather History Date:

Thursday, December 12, 2013

  Actual Average Record
Temperature  
Mean Temperature 22 °F -  
Max Temperature 26 °F 41 °F 60 °F (1979)
Min Temperature 19 °F 29 °F 2 °F (1988)
Degree Days  
Heating Degree Days 42    
Moisture  
Dew Point 6 °F    
Average Humidity 51    
Maximum Humidity 63    
Minimum Humidity 44    
Precipitation  
Precipitation 0.00 in - - ()
Sea Level Pressure  
Sea Level Pressure 30.26 in    
Wind  
Wind Speed 12 mph (WNW)    
Max Wind Speed 17 mph    
Max Gust Speed 25 mph    
Visibility 10 miles    
Events      
Averages and records for this station are not official NWS values.
T = Trace of Precipitation, MM = Missing Value Source: NWS Daily Summary

Daily Weather History Graph

Daily Weather History Graph

Search for Another Location

Airport or City:

Trip Planner

Search our weather history database for the weather conditions in past years. The results will help you decide how hot, cold, wet, or windy it might be!

Date:

Astronomy

Dec. 12, 2013 Rise Set
Actual Time 7:10 AM EST 4:26 PM EST
Civil Twilight 6:39 AM EST 4:57 PM EST
Nautical Twilight 6:05 AM EST 5:32 PM EST
Astronomical Twilight 5:31 AM EST 6:05 PM EST
Moon 1:33 PM EST (12/12) 2:28 AM EST (12/12)
Length of Visible Light 10h 17m
Length of Day
9h 15m
Waxing Gibbous, 80% of the Moon is Illuminated
Dec 12
Waxing Gibbous
Dec 17
Full
Dec 25
Last Quarter
Jan 1
New
Jan 7
First Quarter

Hourly Weather History & Observations

Time (EST) Temp. Windchill Dew Point Humidity Pressure Visibility Wind Dir Wind Speed Gust Speed Precip Events Conditions
12:56 AM 26.1 °F 13.6 °F 14.0 °F 60% 30.21 in 10.0 mi WNW 16.1 mph - N/A   Clear
1:56 AM 25.0 °F 16.3 °F 12.9 °F 60% 30.22 in 10.0 mi WNW 8.1 mph - N/A   Clear
2:56 AM 25.0 °F 13.1 °F 14.0 °F 63% 30.25 in 10.0 mi NW 13.8 mph 24.2 mph N/A   Scattered Clouds
3:56 AM 23.0 °F 10.6 °F 10.9 °F 60% 30.25 in 10.0 mi NW 13.8 mph 20.7 mph N/A   Clear
4:56 AM 21.9 °F 7.8 °F 6.1 °F 51% 30.26 in 10.0 mi NW 17.3 mph 24.2 mph N/A   Clear
5:56 AM 21.0 °F 8.6 °F 6.1 °F 53% 30.28 in 10.0 mi NW 12.7 mph - N/A   Clear
6:56 AM 21.0 °F 7.6 °F 5.0 °F 50% 30.30 in 10.0 mi NW 15.0 mph 25.3 mph N/A   Clear
7:56 AM 19.9 °F 6.7 °F 5.0 °F 52% 30.32 in 10.0 mi NW 13.8 mph - N/A   Clear
8:56 AM 19.9 °F 7.3 °F 6.1 °F 55% 30.34 in 10.0 mi NW 12.7 mph 20.7 mph N/A   Clear
9:56 AM 21.9 °F 9.2 °F 7.0 °F 53% 30.34 in 10.0 mi NW 13.8 mph - N/A   Partly Cloudy
10:56 AM 23.0 °F 11.7 °F 7.0 °F 50% 30.32 in 10.0 mi NNW 11.5 mph 18.4 mph N/A   Partly Cloudy
11:56 AM 24.1 °F 10.6 °F 5.0 °F 44% 30.29 in 10.0 mi NW 17.3 mph 23.0 mph N/A   Partly Cloudy
12:56 PM 23.0 °F 9.6 °F 5.0 °F 46% 30.27 in 10.0 mi WNW 16.1 mph 24.2 mph N/A   Partly Cloudy
1:56 PM 24.1 °F 13.7 °F 5.0 °F 44% 30.26 in 10.0 mi NW 10.4 mph 19.6 mph N/A   Partly Cloudy
2:56 PM 24.1 °F 15.2 °F 5.0 °F 44% 30.25 in 10.0 mi WNW 8.1 mph 18.4 mph N/A   Partly Cloudy
3:56 PM 21.9 °F 14.5 °F 3.9 °F 46% 30.25 in 10.0 mi WNW 5.8 mph - N/A   Partly Cloudy
4:56 PM 21.0 °F - 6.1 °F 53% 30.25 in 10.0 mi Calm Calm - N/A   Partly Cloudy
5:56 PM 19.0 °F - 7.0 °F 59% 30.25 in 10.0 mi Calm Calm - N/A   Clear
6:56 PM 21.9 °F 13.4 °F 5.0 °F 48% 30.25 in 10.0 mi West 6.9 mph - N/A   Clear
7:56 PM 21.9 °F 14.5 °F 3.9 °F 46% 30.24 in 10.0 mi WSW 5.8 mph - N/A   Clear
8:56 PM 21.0 °F 11.4 °F 3.9 °F 48% 30.22 in 10.0 mi WSW 8.1 mph - N/A   Clear
9:56 PM 19.9 °F 13.4 °F 3.0 °F 48% 30.19 in 10.0 mi West 4.6 mph - N/A   Clear
10:56 PM 19.9 °F 9.3 °F 3.0 °F 48% 30.17 in 10.0 mi WSW 9.2 mph - N/A   Partly Cloudy
11:56 PM 19.9 °F 8.6 °F 3.0 °F 48% 30.15 in 10.0 mi WSW 10.4 mph - N/A   Partly Cloudy